Theta_e
352 353 352 354 354 353 353 353 352 351 351 350 350 351 352 352 349 348 350 353 353 354 355 355 355 354 353 351 350 349 352 354 353 353 353 353 342 341 343 347 345 342 349
352 352 350 351 354 351 353 352 351 351 353 350 350 353 354 353 353 352 349 353 353 351 353 352 352 353 352 351 348 350 346 348 351 354 353 352 349 342 345 350 351 347 346
349 350 351 348 353 349 349 352 351 353 353 352 352 350 352 353 353 355 355 354 354 355 355 353 352 351 351 351 352 355 355 354 351 352 346 341 345 347 337 340 348 350 350
350 348 348 349 352 352 341 348 349 353 353 350 348 350 347 352 352 353 353 353 353 353 353 355 355 353 354 350 350 351 353 350 341 345 342 342 343 348 346 344 341 347 350
350 350 351 347 350 348 341 345 347 350 353 348 346 347 339 346 348 351 353 353 353 352 352 352 353 354 354 354 354 353 353 344 345 350 348 348 347 345 348 334 330 345 350
352 354 349 342 347 350 345 346 350 342 348 343 349 345 336 333 337 345 349 352 352 352 352 352 351 350 350 352 352 352 349 337 344 344 345 346 350 345 349 351 342 332 333
353 354 353 347 346 349 352 353 352 352 344 341 339 334 334 337 332 341 343 346 352 352 353 352 352 351 349 348 348 349 349 339 347 347 345 341 346 340 349 349 346 337 330
354 351 352 353 351 350 352 353 351 351 347 341 334 330 331 335 336 336 341 343 346 351 352 351 352 350 349 346 342 340 342 339 345 346 344 341 342 341 335 349 351 346 337
352 351 351 351 354 354 352 351 348 350 348 340 334 330 334 332 333 333 342 345 342 344 350 350 350 349 347 344 342 341 340 342 348 344 343 346 344 342 337 337 349 349 344
349 350 350 350 350 351 352 353 352 352 349 343 336 337 335 332 332 335 340 343 342 348 350 351 350 347 346 343 342 342 340 338 342 344 347 345 344 342 341 341 346 348 348
350 349 349 350 349 347 348 352 352 353 351 348 345 343 339 334 333 335 336 345 346 346 349 351 350 352 349 343 341 334 335 345 346 345 346 344 341 342 340 347 346 348 347
349 348 348 348 348 348 349 352 352 352 350 349 347 346 343 340 337 338 339 342 343 347 349 347 340 336 345 350 350 337 343 347 348 347 346 344 342 343 343 340 343 342 343
349 348 348 349 349 349 347 350 351 350 348 348 346 346 345 345 341 340 340 339 340 340 344 344 345 346 347 348 348 345 346 345 345 345 346 342 342 343 341 343 344 346 345
348 349 348 349 351 350 351 351 351 350 348 348 347 348 344 347 345 343 342 340 339 342 345 342 344 344 349 348 346 345 345 347 345 345 346 344 342 342 342 346 347 346 346
349 349 350 351 352 351 352 352 351 350 349 345 348 348 348 346 347 345 345 345 343 347 345 342 344 345 347 348 344 346 346 346 346 345 347 346 342 342 341 347 347 344 346
349 350 350 351 353 353 353 352 351 351 352 346 346 350 351 348 348 349 346 348 348 346 345 346 344 345 348 345 344 345 347 347 347 347 349 349 344 341 339 339 350 344 350
349 350 351 352 353 354 353 354 352 352 351 349 346 346 351 350 349 349 348 348 349 348 347 346 345 348 345 344 343 348 347 347 348 346 346 348 349 342 340 336 347 351 351
350 351 352 352 353 354 354 354 354 351 351 348 347 348 349 350 351 350 347 347 348 348 345 345 346 344 343 344 345 347 347 347 350 347 346 346 348 350 343 339 336 342 346
352 352 353 353 353 354 355 354 354 353 352 348 344 342 348 351 351 349 350 348 352 350 350 348 345 344 345 345 346 348 346 347 347 348 347 346 346 347 351 341 335 336 343
353 355 356 356 355 353 354 354 353 352 351 347 344 343 343 344 348 350 349 349 349 349 350 350 350 349 349 347 347 348 347 348 348 348 346 347 346 347 343 350 345 340 333
353 356 358 359 353 341 341 355 355 356 353 350 349 346 343 350 345 345 346 347 350 350 348 349 349 350 350 350 349 349 348 348 348 348 347 342 342 341 343 347 345 345 345
354 356 359 359 354 344 344 356 356 352 352 352 353 349 350 351 348 344 344 344 349 348 352 350 352 350 351 350 349 349 350 350 348 348 343 341 339 341 341 342 343 343 346
354 356 359 361 362 358 356 355 356 356 353 353 353 353 353 351 346 346 346 345 343 349 349 351 352 349 351 349 351 350 358 356 347 345 343 340 341 340 343 343 343 343 346
352 353 357 360 362 362 360 359 357 358 354 355 352 352 351 352 351 351 350 346 346 347 345 350 352 351 353 348 350 348 350 350 351 352 343 342 344 342 341 340 342 342 346
351 349 354 360 361 362 362 360 359 358 353 354 353 353 350 347 353 353 352 352 351 348 345 347 348 350 350 351 349 349 349 347 347 349 348 348 344 344 342 341 343 343 347
353 350 351 359 361 362 362 362 363 359 356 353 353 353 353 353 354 351 353 354 351 352 352 353 353 352 350 348 350 348 350 349 348 346 349 345 345 343 343 343 342 342 343
Wind_Speed
17 17 19 19 19 19 19 20 21 22 21 20 20 20 20 20 20 20 20 19 17 17 17 16 17 16 17 18 19 19 20 20 21 20 20 18 18 22 19 16 15 15 16
21 19 21 20 18 20 19 20 20 21 19 20 18 18 18 18 17 18 18 18 18 17 17 16 16 16 16 16 18 19 18 19 20 19 19 17 15 16 16 17 18 14 15
25 21 21 21 19 19 21 20 21 19 19 18 16 17 16 15 14 14 15 16 16 16 15 15 15 15 14 14 14 15 17 17 17 17 15 15 13 14 14 14 15 13 14
24 22 20 22 20 21 23 22 22 19 19 18 16 14 13 13 12 11 12 13 13 13 13 13 12 13 12 12 12 11 12 12 15 11 10 13 12 12 12 12 13 13 13
24 22 21 22 20 21 25 24 22 22 18 17 14 13 11 10 9 8 9 9 10 11 11 11 10 10 10 10 10 10 9 9 10 6 9 8 12 11 10 11 11 12 11
22 20 21 22 20 20 23 23 22 24 23 19 17 14 13 10 5 5 4 6 7 8 9 10 8 7 7 7 7 7 8 6 8 7 6 7 10 10 10 7 9 7 8
22 20 20 21 21 20 21 21 22 21 23 22 20 18 10 9 13 2 3 0 4 5 5 7 6 4 4 4 4 4 5 4 6 7 5 6 7 7 7 7 6 6 7
23 22 19 19 20 20 21 21 22 21 20 21 21 23 20 14 14 12 2 4 2 2 2 3 3 2 2 2 2 3 4 6 5 5 7 7 10 6 6 7 7 5 5
25 23 19 17 17 18 20 20 21 21 20 19 18 21 18 24 20 17 4 5 5 3 2 1 2 1 1 2 3 4 4 6 7 5 7 4 7 5 9 10 10 8 6
20 19 20 19 17 17 16 17 18 18 18 17 18 18 19 25 26 20 8 5 6 4 4 4 3 3 3 4 4 5 7 8 8 8 1 8 7 4 8 12 13 10 8
21 20 20 20 18 18 17 18 19 18 19 17 16 17 17 25 28 26 16 7 6 7 6 5 5 5 5 6 5 6 11 12 12 9 12 7 4 4 3 12 14 11 9
17 18 18 19 18 16 20 19 17 17 17 18 18 18 17 20 23 22 21 14 9 9 9 10 9 8 8 9 9 8 12 10 8 9 10 8 2 5 6 9 13 12 10
17 17 17 16 17 20 17 15 15 15 14 16 17 18 19 20 18 18 18 20 15 14 11 14 12 11 11 8 14 9 4 6 5 6 11 4 3 4 6 9 10 12 11
19 17 17 15 12 13 18 18 14 15 14 15 16 17 18 17 17 18 16 19 18 16 14 12 10 7 5 7 10 6 7 3 7 7 7 2 4 6 7 9 9 10 11
19 17 15 16 15 14 9 10 12 15 15 13 14 16 15 15 16 17 16 18 16 14 14 12 11 10 7 11 9 7 6 5 7 5 1 3 3 7 7 8 8 8 9
19 19 17 16 16 15 14 11 12 12 14 14 12 14 17 15 14 14 15 17 17 15 17 16 12 11 11 9 9 9 8 7 10 5 9 5 4 7 7 8 9 8 10
19 18 17 18 18 16 15 14 12 8 9 13 11 11 12 14 14 11 12 12 14 19 16 11 10 8 10 12 10 4 11 9 11 7 8 7 5 9 7 8 10 10 9
19 17 18 17 18 17 15 12 11 10 5 10 10 12 10 10 10 11 9 9 9 12 12 15 11 12 12 13 9 9 9 9 14 10 10 10 12 12 11 8 9 10 10
17 18 19 17 15 15 15 11 12 13 10 11 12 16 12 10 11 11 9 11 11 10 10 10 12 11 13 12 15 11 11 10 13 12 8 9 7 8 14 11 6 10 12
19 18 18 17 13 16 9 12 13 11 11 14 17 18 14 14 10 9 12 11 14 13 12 13 12 10 9 10 9 8 12 10 12 9 12 16 11 14 10 12 7 10 12
19 20 19 20 22 18 18 13 13 13 15 14 16 17 17 13 9 11 13 14 13 13 14 12 13 11 11 13 8 11 12 10 12 15 15 8 11 8 10 11 7 12 14
20 20 20 20 20 21 19 18 18 17 19 18 15 18 14 13 14 14 15 18 16 15 14 12 10 11 13 8 6 5 6 3 15 20 12 11 8 10 13 10 9 8 6
19 19 22 23 22 20 21 17 13 11 9 13 12 14 16 18 17 19 19 20 23 16 12 10 10 10 11 8 11 5 3 2 5 15 12 8 7 8 10 10 10 11 10
20 16 20 22 22 21 20 20 16 13 13 13 11 12 16 15 17 22 20 22 21 19 17 13 12 12 10 10 9 11 14 1 1 3 7 12 11 10 8 10 12 11 11
19 16 19 20 21 20 19 18 16 15 11 10 11 11 14 15 16 17 17 19 19 21 19 18 18 15 13 11 9 10 11 11 8 6 3 8 9 15 13 11 13 13 15
22 18 15 17 16 17 15 15 15 13 12 9 11 9 12 15 17 19 17 17 19 19 19 16 19 15 14 11 10 13 13 12 12 10 6 4 11 12 11 14 11 11 11
Wind_Direction
140 139 132 131 129 130 132 133 130 127 123 118 114 108 106 108 111 109 102 101 105 106 103 105 104 106 107 110 111 111 113 112 104 104 103 96 97 99 99 104 99 93 96
140 138 141 137 130 137 135 135 136 128 121 119 113 107 107 110 111 108 108 104 100 101 100 102 105 107 112 115 118 117 117 113 113 114 110 102 101 105 106 104 100 101 96
139 144 142 144 138 145 141 139 142 129 124 119 111 107 103 103 103 102 104 106 105 103 105 105 105 108 115 120 122 121 121 121 117 120 104 103 107 105 110 124 114 104 106
139 146 148 150 145 149 146 147 148 138 132 124 113 103 99 96 98 97 99 103 105 107 108 105 110 112 116 122 124 124 125 130 126 134 123 115 108 112 113 116 120 108 106
141 144 149 156 149 153 153 153 153 154 140 129 118 110 105 76 64 92 98 99 105 109 109 109 112 115 120 124 121 127 131 132 129 87 113 113 117 115 114 112 114 115 130
137 139 154 161 157 154 156 157 158 166 157 151 136 124 126 146 120 9 99 109 109 110 112 111 111 113 122 127 134 145 154 151 158 138 125 124 127 130 116 122 136 141 139
139 142 149 163 162 160 160 158 159 159 165 167 164 148 128 148 171 270 340 205 123 114 112 109 109 111 111 117 142 171 195 191 243 181 155 143 148 134 147 149 145 131 132
152 152 151 155 160 165 163 166 166 165 162 170 169 176 185 184 183 195 269 278 249 162 120 107 123 133 130 152 182 193 212 208 225 214 213 226 177 202 198 181 177 165 145
161 153 157 161 160 160 168 172 178 181 181 186 184 185 197 194 198 198 227 274 254 252 217 173 184 217 220 240 242 232 220 216 234 217 224 109 190 229 207 202 196 186 174
148 153 164 166 172 174 179 179 182 184 180 185 196 192 195 197 202 207 229 279 245 253 246 230 246 276 268 270 254 240 221 212 228 233 40 210 199 233 226 213 201 198 196
156 166 167 169 175 180 183 191 190 188 185 181 183 187 194 205 209 217 227 238 255 254 248 246 251 261 266 270 262 242 221 222 213 215 180 170 179 214 234 202 198 202 207
170 173 169 174 178 184 183 181 194 197 192 191 189 193 198 208 214 221 224 238 255 254 250 251 257 261 258 226 235 231 240 229 208 195 182 171 181 186 195 178 196 209 215
176 181 170 172 176 180 195 183 194 196 196 196 197 200 203 203 211 222 225 231 242 247 240 242 249 245 264 269 250 258 273 227 203 176 173 139 177 190 198 195 203 213 214
182 189 170 181 181 201 179 192 197 205 199 207 210 206 210 210 204 209 212 219 226 242 229 244 254 271 245 278 267 228 283 289 252 220 183 157 219 202 184 192 201 209 207
181 188 181 180 184 202 211 210 221 196 192 221 227 213 205 214 217 210 211 222 218 245 258 236 246 271 274 251 233 244 253 280 259 234 293 160 162 182 183 190 198 201 205
184 186 191 192 188 203 213 217 232 189 192 195 219 221 211 216 213 214 209 217 220 224 229 239 230 253 237 255 236 243 243 242 253 269 165 157 190 189 191 192 193 200 201
187 187 196 196 188 200 205 208 222 245 201 190 191 244 223 215 220 217 222 211 207 216 227 235 238 232 253 238 240 239 235 242 250 213 240 223 217 198 187 191 192 198 197
191 188 196 195 194 195 210 209 215 226 207 174 177 221 241 226 210 219 226 215 226 218 205 227 216 230 233 235 249 248 229 239 243 230 229 243 195 194 188 184 199 202 203
196 184 192 191 192 190 205 213 217 225 201 202 227 234 239 237 223 219 223 228 223 218 228 240 222 233 216 234 218 234 241 242 244 240 245 209 236 225 198 168 180 209 209
185 188 196 184 192 193 193 227 222 229 226 230 241 225 237 245 236 224 237 237 230 224 223 230 245 250 261 263 263 310 270 230 251 242 224 213 206 212 207 160 175 207 208
191 193 195 180 187 200 214 226 220 216 207 214 220 223 217 228 233 236 246 251 233 227 231 239 224 217 231 244 268 273 236 240 227 221 235 212 194 205 227 177 215 226 204
194 192 194 199 202 220 210 218 219 215 208 207 217 224 214 220 224 237 238 242 247 234 237 229 218 213 230 234 230 213 262 190 222 224 200 218 216 201 204 219 221 234 215
192 196 199 202 200 202 207 216 223 223 165 204 212 214 213 209 230 229 224 232 236 239 234 233 238 229 223 234 216 210 270 206 280 204 191 208 192 241 230 196 197 215 224
184 194 198 200 202 205 206 214 206 211 208 215 221 220 225 221 223 221 217 222 229 227 232 235 229 230 242 211 218 227 250 40 304 9 280 204 196 234 216 226 206 214 209
190 181 188 192 198 206 207 220 210 216 215 200 212 208 221 228 224 219 219 220 223 227 232 227 231 224 220 241 219 246 241 236 225 176 345 300 247 203 218 215 225 214 196
191 182 171 180 190 194 201 212 225 218 233 213 209 205 213 214 215 213 216 223 220 225 228 225 229 225 225 248 229 230 234 233 222 231 177 235 264 268 229 210 228 239 221